This demonstration page uses our WeatherBlox Daily Observations layout. Learn more.

Left ArrowRight Arrow

39.29038, -76.61219

Hourly Observations for January 14, 2015

Temp ( °F °C ) Dew Point ( °F °C ) Humidity (%) Winds ( mph kmh ) Pressure ( in mb ) Visibility ( mi km ) Precip ( " mm )
12:54 am 00:54 undefined 25 -3.9 9 -12.8 50 50 undefined N/A 30.49 1033 N/A 0.00 0.00
1:54 am 01:54 undefined 25 -3.9 8 -13.3 48 48 undefined N/A 30.58 1036 N/A 0.00 0.00
2:54 am 02:54 undefined 25 -3.9 9 -12.8 50 50 undefined N/A 30.45 1031 N/A 0.00 0.00
3:54 am 03:54 undefined 25 -3.9 10 -12.2 53 53 undefined N/A 30.42 1030 N/A 0.00 0.00
4:54 am 04:54 undefined 25 -3.9 11 -11.7 55 55 undefined N/A 30.48 1032 N/A 0.00 0.00
5:54 am 05:54 undefined 25 -3.9 14 -10 63 63 undefined N/A 30.41 1030 N/A 0.00 0.00
6:54 am 06:54 undefined 25 -3.9 14 -10 63 63 undefined N/A 30.39 1029 N/A 0.00 0.00
7:54 am 07:54 undefined 25 -3.9 15 -9.4 66 66 undefined N/A 30.44 1031 N/A 0.00 0.00
8:54 am 08:54 undefined 26 -3.3 16 -8.9 66 66 undefined N/A 30.38 1029 N/A 0.00 0.00
9:54 am 09:54 undefined 26 -3.3 16 -8.9 66 66 undefined N/A 30.36 1028 N/A 0.00 0.00
10:54 am 10:54 undefined 27 -2.8 17 -8.3 66 66 undefined N/A 30.36 1028 N/A 0.00 0.00
11:54 am 11:54 undefined 28 -2.2 18 -7.8 66 66 undefined N/A 30.34 1027 N/A 0.00 0.00
12:54 pm 12:54 undefined 30 -1.1 18 -7.8 61 61 undefined N/A 30.31 1026 N/A 0.00 0.00
1:54 pm 13:54 undefined 30 -1.1 20 -6.7 66 66 undefined N/A 30.28 1026 N/A 0.00 0.00
2:54 pm 14:54 undefined 31 -0.6 20 -6.7 64 64 undefined N/A 30.26 1025 N/A 0.00 0.00
3:54 pm 15:54 undefined 31 -0.6 20 -6.7 64 64 undefined N/A 30.26 1025 N/A 0.00 0.00
4:54 pm 16:54 undefined 31 -0.6 20 -6.7 64 64 undefined N/A 30.24 1024 N/A 0.00 0.00
5:54 pm 17:54 undefined 31 -0.6 20 -6.7 64 64 undefined N/A 30.23 1024 N/A 0.00 0.00
6:54 pm 18:54 undefined 30 -1.1 19 -7.2 64 64 undefined N/A 30.25 1024 N/A 0.00 0.00
7:54 pm 19:54 undefined 30 -1.1 20 -6.7 66 66 undefined N/A 30.25 1025 N/A 0.00 0.00
8:54 pm 20:54 undefined 30 -1.1 21 -6.1 69 69 undefined N/A 30.26 1025 N/A 0.00 0.00
9:54 pm 21:54 undefined 30 -1.1 20 -6.7 66 66 undefined N/A 30.24 1024 N/A 0.00 0.00
10:54 pm 22:54 undefined 31 -0.6 21 -6.1 67 67 undefined N/A 30.23 1024 N/A 0.00 0.00
11:54 pm 23:54 undefined 30 -1.1 21 -6.1 69 69 undefined N/A 30.22 1023 N/A 0.00 0.00

Powered by AerisWeather